Weather History for Kalispell, MT

Change the Weather History Date:

Friday, December 14, 2012

  Actual Average Record
Temperature  
Mean Temperature 20 °F 22 °F  
Max Temperature 28 °F 29 °F 54 °F (1924)
Min Temperature 11 °F 16 °F -12 °F (1955)
Degree Days  
Heating Degree Days 45 43  
Month to date heating degree days 474 573  
Since 1 July heating degree days 2454 2777  
Moisture  
Dew Point 18 °F    
Average Humidity 89    
Maximum Humidity 96    
Minimum Humidity 81    
Precipitation  
Precipitation T in 0.05 in 0.31 in (1901)
Month to date precipitation 0.88 0.67  
Year to date precipitation 20.02 16.10  
Snow  
Snow T in - - ()
Month to date snowfall 3.3  
Year to date snowfall 30.7  
Since 1 July snowfall 5.6  
Snow Depth 1.00 in    
Sea Level Pressure  
Sea Level Pressure 29.85 in    
Wind  
Wind Speed 0 mph (SW)    
Max Wind Speed 7 mph    
Max Gust Speed 8 mph    
Visibility 9 miles    
Events Snow    
T = Trace of Precipitation, MM = Missing Value Source: NWS Daily Summary

Daily Weather History Graph

Daily Weather History Graph

Search for Another Location

Airport:

Trip Planner

Search our weather history database for the weather conditions in past years. The results will help you decide how hot, cold, wet, or windy it might be!

Date:

Astronomy

Dec. 14, 2012 Rise Set
Actual Time 8:21 AM MST 4:42 PM MST
Civil Twilight 7:44 AM MST 5:19 PM MST
Nautical Twilight 7:04 AM MST 5:59 PM MST
Astronomical Twilight 6:26 AM MST 6:37 PM MST
Moon 9:25 AM MST (12/14) 6:46 PM MST (12/14)
Length of Visible Light 9h 34m
Length of Day
8h 21m
Waxing Crescent, 3% of the Moon is Illuminated
Dec 14
Waxing Crescent
Dec 19
First Quarter
Dec 28
Full
Jan 4
Last Quarter
Jan 11
New

Hourly Weather History & Observations

Time (MST) Temp. Windchill Dew Point Humidity Pressure Visibility Wind Dir Wind Speed Gust Speed Precip Events Conditions
12:55 AM 21.9 °F - 19.0 °F 89% 29.88 in 10.0 mi Calm Calm - N/A   Clear
1:55 AM 19.9 °F 12.1 °F 17.1 °F 89% 29.87 in 10.0 mi SW 5.8 mph - N/A   Clear
2:55 AM 18.0 °F 12.7 °F 15.1 °F 88% 29.86 in 10.0 mi WSW 3.5 mph - N/A   Clear
3:55 AM 17.6 °F - 14.0 °F 86% 29.75 in 10.0 mi Calm Calm - N/A   Clear
4:55 AM 14.0 °F - 12.0 °F 92% 29.85 in 10.0 mi Calm Calm - N/A   Clear
5:55 AM 12.0 °F - 10.0 °F 92% 29.85 in 10.0 mi Calm Calm - N/A   Scattered Clouds
6:06 AM 12.2 °F - 10.4 °F 92% 29.74 in 10.0 mi Calm Calm - N/A   Mostly Cloudy
6:55 AM 15.1 °F - 12.9 °F 91% 29.85 in 10.0 mi Calm Calm - N/A   Overcast
7:55 AM 19.0 °F - 16.0 °F 88% 29.84 in 10.0 mi Calm Calm - N/A   Overcast
8:55 AM 19.9 °F - 17.1 °F 89% 29.83 in 10.0 mi Calm Calm - N/A   Overcast
9:55 AM 21.9 °F - 19.0 °F 89% 29.84 in 10.0 mi Calm Calm - N/A   Overcast
10:55 AM 23.0 °F - 19.0 °F 85% 29.84 in 10.0 mi Calm Calm - N/A   Overcast
11:16 AM 24.8 °F - 19.4 °F 80% 29.74 in 10.0 mi Calm Calm - N/A   Overcast
11:55 AM 25.0 °F - 19.9 °F 81% 29.83 in 10.0 mi Calm Calm - N/A   Overcast
12:55 PM 27.0 °F - 21.0 °F 78% 29.82 in 10.0 mi Calm Calm - N/A   Overcast
2:20 PM 28.4 °F - 21.2 °F 74% 29.72 in 10.0 mi Calm Calm - N/A   Overcast
2:55 PM 26.6 °F - 21.2 °F 80% 29.72 in 10.0 mi Calm Calm - N/A   Overcast
3:55 PM 27.0 °F - 21.0 °F 78% 29.85 in 10.0 mi Calm Calm - N/A   Mostly Cloudy
4:55 PM 25.0 °F - 21.0 °F 85% 29.88 in 10.0 mi Calm Calm - N/A   Scattered Clouds
5:55 PM 24.1 °F - 21.0 °F 88% 29.91 in 10.0 mi Calm Calm - N/A   Overcast
6:55 PM 24.1 °F - 21.9 °F 91% 29.91 in 6.0 mi Calm Calm - 0.00 in Snow Light Snow
7:55 PM 23.0 °F - 21.9 °F 96% 29.91 in 7.0 mi Calm Calm - 0.00 in   Overcast
8:55 PM 23.0 °F - 21.9 °F 96% 29.93 in 6.0 mi Calm Calm - 0.00 in Snow Light Snow
9:55 PM 23.0 °F - 21.0 °F 92% 29.93 in 3.0 mi Calm Calm - 0.00 in Snow Light Snow
10:55 PM 23.0 °F - 21.9 °F 96% 29.94 in 8.0 mi Calm Calm - 0.00 in   Overcast
11:55 PM 24.1 °F - 21.9 °F 91% 29.95 in 8.0 mi Calm Calm - N/A   Overcast